Погода в Протопоповке

Украина / Харьковская область     50°01′44″N   35°50′17″E
темп.,
°C
ветер,
м/с
пор.,
м/с
влажн.,
%
обл.,
%
осадки,
мм/ч
давл.,
гПа
погр.,
м
20 июня, вс
вс2000:00+20в61380100 0.0 1020392
03:00+18всв5137636 0.0 1019328
06:00+17всв614785 0.0 1019347
09:00+21в6136875 0.0 1019574
12:00+24в7116099 0.0 1018793
15:00+25в71061100 0.0 1017956
18:00+23в71272100 0.0 1017608
21:00+20всв5128199 0.0 1017317
21 июня, пн
пн2100:00+19всв513848 0.0 1016255
03:00+18всв512784 0.0 1015256
06:00+17всв5128148 0.0 1015228
09:00+23вюв6146476 0.0 1015543
12:00+27вюв711545 0.0 10151000
15:00+28вюв610550 0.0 10151282
18:00+26вюв611625 0.0 1015501
21:00+22в487612 0.0 1015135
22 июня, вт
вт2200:00+20в411760 0.0 1015226
03:00+19в5127031 0.0 1015219
06:00+18в5127861 0.0 1015233
09:00+24вюв614615 0.0 1016552
12:00+28вюв6114932 0.0 1016906
15:00+29вюв6105065 0.0 10151200
18:00+27в5116082 0.0 1015365
21:00+24всв5127680 0.0 1016261
23 июня, ср
ср2300:00+22всв513800 0.0 1015299
03:00+21всв41273100 0.0 1015222
06:00+20всв51180100 0.0 1015225
09:00+26в5116361 0.0 1016499
12:00+27вюв5958100 0.0 1016731
15:00+30юв585249 0.0 10161218
18:00+28вюв4963100 0.0 1017315
21:00+24в4674100 0.0 101797
24 июня, чт
чт2400:00+23в358193 0.0 101770
03:00+22всв3479100 0.0 101770
06:00+21всв487865 0.0 1018138
09:00+26в596127 0.0 1018390
12:00+30в564510 0.0 1018813
15:00+32вюв4643100 0.0 10181383
18:00+29всв4762100 0.0 1018250
21:00+25всв4670100 0.0 101895